This demonstration page uses our WeatherBlox Daily Observations layout. Learn more.

Left ArrowRight Arrow

47.50024, -111.30081

Hourly Observations for January 10, 2020

Temp ( °F °C ) Dew Point ( °F °C ) Humidity (%) Winds ( mph kmh ) Pressure ( in mb ) Visibility ( mi km ) Precip ( " mm )
12:16 am 00:16 Cloudy with Light Snow 5 -15 0 -17.8 79 79 Calm 30.43 1031 3 4 0.00 0.00
12:26 am 00:26 Cloudy 4 -15.6 0 -17.8 83 83 Calm 30.44 1031 7 11 0.00 0.00
12:53 am 00:53 Cloudy with Light Snow 3 -16.1 -1 -18.3 83 83 SW 3 6 30.34 1027 6 10 0.00 0.00
1:53 am 01:53 Cloudy 1 -17.2 -4 -20 79 79 SSW 6 9 30.35 1028 9 14 0.00 0.00
2:53 am 02:53 Partly Cloudy -1 -18.3 -5 -20.6 82 82 SSW 7 11 30.35 1028 10 16 0.00 0.00
3:53 am 03:53 Clear -3 -19.4 -7 -21.7 82 82 SSW 8 13 30.35 1028 10 16 0.00 0.00
4:53 am 04:53 Clear 3 -16.1 -2 -18.9 79 79 S 5 7 30.33 1027 10 16 0.00 0.00
5:53 am 05:53 Clear 2 -16.7 -3 -19.4 80 80 S 5 7 30.34 1027 10 16 0.00 0.00
6:53 am 06:53 Clear 0 -17.8 -5 -20.6 79 79 SSW 5 7 30.32 1027 10 16 0.00 0.00
7:53 am 07:53 Clear 3 -16.1 -3 -19.4 76 76 SSW 13 20 30.31 1026 10 16 0.00 0.00
8:53 am 08:53 Sunny 9 -12.8 2 -16.7 73 73 SSW 14 22 30.27 1025 10 16 0.00 0.00
9:53 am 09:53 Sunny 15 -9.4 6 -14.4 67 67 SSW 17 28 30.26 1025 10 16 0.00 0.00
10:53 am 10:53 Sunny 20 -6.7 9 -12.8 62 62 SSW 17 28 30.22 1023 10 16 0.00 0.00
11:53 am 11:53 Sunny 24 -4.4 9 -12.8 52 52 SW 22 35 30.17 1022 10 16 0.00 0.00
12:53 pm 12:53 Sunny 26 -3.3 8 -13.3 46 46 SW 23 37 30.11 1020 10 16 0.00 0.00
1:53 pm 13:53 Sunny 26 -3.3 8 -13.3 46 46 SW 23 37 30.07 1018 10 16 0.00 0.00
2:53 pm 14:53 Mostly Cloudy 28 -2.2 8 -13.3 43 43 SW 23 37 30.03 1017 10 16 0.00 0.00
3:53 pm 15:53 Mostly Cloudy 27 -2.8 8 -13.3 45 45 SSW 15 24 30.00 1016 10 16 0.00 0.00
4:53 pm 16:53 Cloudy 27 -2.8 10 -12.2 49 49 S 15 24 29.96 1015 10 16 0.00 0.00
5:53 pm 17:53 Cloudy 28 -2.2 11 -11.7 49 49 SW 15 24 29.93 1014 10 16 0.00 0.00
6:53 pm 18:53 Cloudy 29 -1.7 12 -11.1 49 49 SSW 16 26 29.88 1012 10 16 0.00 0.00
7:53 pm 19:53 Partly Cloudy 30 -1.1 12 -11.1 47 47 SSW 20 31 29.83 1010 10 16 0.00 0.00
8:53 pm 20:53 Cloudy 31 -0.6 14 -10 49 49 SSW 24 39 29.81 1010 10 16 0.00 0.00
9:53 pm 21:53 Clear 31 -0.6 15 -9.4 52 52 SSW 26 43 29.78 1009 10 16 0.00 0.00
10:53 pm 22:53 Clear 30 -1.1 16 -8.9 56 56 SSW 26 43 29.77 1008 10 16 0.00 0.00
11:53 pm 23:53 Clear 30 -1.1 17 -8.3 58 58 SSW 15 24 29.76 1008 10 16 0.00 0.00

Powered by AerisWeather